Date String (YYYY-MM-DD hh:mm:ss) UTC,Instrument flags,Ambient pressure (hPa),Sample flow (lpm),Bypass flow (lpm),Sample temperature (°C),Ambient temperature (°C),ASC tube jacket temperature (°C),LED temperature (°C),Box temperature (°C),Sample RH (%),Span deviation,Mass concentration (μg/m³),Mass concentration (μg/m³),Mass concentration (μg/m³)
DateTimeUTC,F1_M11,P_M11,Q1_M11,Q2_M11,T1_M11,T2_M11,T3_M11,T4_M11,T5_M11,U1_M11,ZSPAN_M11,X2_M11,X0_M11,X1_M11
2021-11-30 06:00:00,,0828.2,5.01,0.00,30.0,29.1,00.0,39.0,31.8,10.7,0000.0,0000.76,0002.03,0000.37
2021-11-30 06:01:00,,0828.2,5.01,0.00,30.0,29.1,00.0,39.0,31.7,10.7,0000.0,0000.77,0002.12,0000.36
2021-11-30 06:02:00,,0828.1,5.01,0.00,30.0,29.1,00.0,39.0,31.8,10.7,0000.0,0000.75,0002.16,0000.35
2021-11-30 06:03:00,,0828.1,5.00,0.00,30.0,29.1,00.0,39.0,31.7,10.6,0000.0,0000.71,0002.05,0000.34
2021-11-30 06:04:00,,0828.2,4.98,0.00,30.0,29.1,00.0,39.0,31.6,10.6,0000.0,0000.68,0001.93,0000.34
2021-11-30 06:05:00,,0828.2,4.99,0.00,30.0,29.1,00.0,39.0,31.6,10.6,0000.0,0000.63,0002.15,0000.32
2021-11-30 06:06:00,,0828.1,5.00,0.00,30.0,29.1,00.0,39.0,31.6,10.7,0000.0,0000.62,0002.20,0000.31
2021-11-30 06:07:00,,0828.1,5.01,0.00,30.0,29.1,00.0,39.0,31.6,10.6,0000.0,0000.59,0001.99,0000.30
2021-11-30 06:08:00,,0828.1,5.00,0.00,30.0,29.1,00.0,39.0,31.6,10.6,0000.0,0000.59,0002.01,0000.30
2021-11-30 06:09:00,,0828.1,5.00,0.00,30.0,29.1,00.0,39.0,31.7,10.6,0000.0,0000.56,0001.97,0000.29
2021-11-30 06:10:00,,0828.1,5.00,0.00,30.0,29.1,00.0,39.0,31.8,10.6,0000.0,0000.52,0002.31,0000.28
2021-11-30 06:11:00,,0828.1,4.99,0.00,30.0,29.1,00.0,39.0,31.8,10.6,0000.0,0000.49,0003.05,0000.27
2021-11-30 06:12:00,,0828.1,5.00,0.00,30.0,29.1,00.0,39.0,31.8,10.6,0000.0,0000.46,0002.92,0000.27
2021-11-30 06:13:00,,0828.2,4.99,0.00,30.0,29.1,00.0,39.0,31.7,10.6,0000.0,0000.42,0002.69,0000.27
2021-11-30 06:14:00,,0828.3,5.01,0.00,30.0,29.1,00.0,39.0,31.7,10.6,0000.0,0000.42,0002.67,0000.27
2021-11-30 06:15:00,,0828.2,5.01,0.00,30.0,29.1,00.0,39.0,31.7,10.5,0000.0,0000.44,0002.69,0000.27
2021-11-30 06:16:00,,0828.2,4.99,0.00,30.0,29.1,00.0,39.0,31.7,10.3,0000.0,0000.57,0002.79,0000.31
2021-11-30 06:17:00,,0828.2,5.00,0.00,30.0,29.1,00.0,39.0,31.8,10.3,0000.0,0000.75,0003.81,0000.38
2021-11-30 06:18:00,,0828.3,5.01,0.00,30.0,29.1,00.0,39.0,31.8,10.3,0000.0,0000.89,0004.59,0000.43
2021-11-30 06:19:00,,0828.3,4.99,0.00,30.0,29.1,00.0,39.0,31.7,10.3,0000.0,0001.06,0005.26,0000.46
2021-11-30 06:20:00,,0828.2,5.00,0.00,30.0,29.1,00.0,39.0,31.8,10.3,0000.0,0001.34,0006.13,0000.51
2021-11-30 06:21:00,,0828.2,5.01,0.00,30.0,29.1,00.0,39.0,31.7,10.3,0000.0,0001.54,0006.70,0000.57
2021-11-30 06:22:00,,0828.4,4.98,0.00,30.0,29.1,00.0,39.0,31.8,10.3,0000.0,0001.80,0006.47,0000.62
2021-11-30 06:23:00,,0828.2,5.00,0.00,30.0,29.1,00.0,39.0,31.8,10.4,0000.0,0001.92,0006.90,0000.66
2021-11-30 06:24:00,,0828.2,5.01,0.00,30.0,29.1,00.0,39.0,31.8,10.3,0000.0,0002.07,0007.25,0000.70
2021-11-30 06:25:00,,0828.2,4.99,0.00,30.0,29.1,00.0,39.0,31.7,10.3,0000.0,0002.27,0007.57,0000.77
2021-11-30 06:26:00,,0828.2,4.99,0.00,30.0,29.1,00.0,39.0,31.7,10.3,0000.0,0002.46,0008.53,0000.82
2021-11-30 06:27:00,,0828.2,5.01,0.00,30.0,29.1,00.0,39.0,31.7,10.3,0000.0,0002.56,0009.36,0000.84
2021-11-30 06:28:00,,0828.2,5.00,0.00,30.0,29.2,00.0,39.0,31.8,10.3,0000.0,0002.56,0009.24,0000.82
2021-11-30 06:29:00,,0828.1,5.00,0.00,30.0,29.2,00.0,39.0,31.7,10.3,0000.0,0002.54,0009.39,0000.79
2021-11-30 06:30:00,,0828.1,5.00,0.00,30.0,29.2,00.0,39.0,31.7,10.3,0000.0,0002.48,0009.42,0000.77
2021-11-30 06:31:00,,0828.1,5.00,0.00,30.0,29.2,00.0,39.0,31.8,10.4,0000.0,0002.27,0009.47,0000.74
2021-11-30 06:32:00,,0828.0,4.99,0.00,30.0,29.2,00.0,39.0,31.7,10.4,0000.0,0002.21,0009.82,0000.71
2021-11-30 06:33:00,,0828.0,5.00,0.00,30.0,29.2,00.0,39.0,31.8,10.4,0000.0,0001.99,0009.66,0000.67
2021-11-30 06:34:00,,0828.0,5.01,0.00,30.1,29.2,00.0,39.0,31.7,10.4,0000.0,0001.86,0009.78,0000.63
2021-11-30 06:35:00,,0828.0,4.99,0.00,30.1,29.2,00.0,39.0,31.7,10.4,0000.0,0001.72,0009.59,0000.59
2021-11-30 06:36:00,,0828.0,4.99,0.00,30.1,29.2,00.0,39.0,31.8,10.4,0000.0,0001.58,0009.36,0000.53
2021-11-30 06:37:00,,0827.9,5.00,0.00,30.1,29.2,00.0,39.0,31.8,10.3,0000.0,0001.37,0008.92,0000.47
2021-11-30 06:38:00,,0828.0,5.00,0.00,30.1,29.2,00.0,39.0,31.8,10.3,0000.0,0001.19,0008.07,0000.42
2021-11-30 06:39:00,,0827.9,5.01,0.00,30.1,29.2,00.0,39.1,31.8,10.3,0000.0,0001.00,0007.45,0000.38
2021-11-30 06:40:00,,0828.0,4.99,0.00,30.1,29.2,00.0,39.1,31.8,10.3,0000.0,0000.85,0006.54,0000.35
2021-11-30 06:41:00,,0828.0,4.99,0.00,30.1,29.1,00.0,39.1,31.8,10.3,0000.0,0000.73,0005.62,0000.33
2021-11-30 06:42:00,,0828.1,5.02,0.00,30.1,29.1,00.0,39.1,31.8,10.4,0000.0,0000.71,0005.53,0000.32
2021-11-30 06:43:00,,0828.1,4.99,0.00,30.0,29.1,00.0,39.1,31.7,10.4,0000.0,0000.68,0005.64,0000.33
2021-11-30 06:44:00,,0828.1,5.01,0.00,30.0,29.1,00.0,39.1,31.7,10.5,0000.0,0000.64,0005.17,0000.32
2021-11-30 06:45:00,,0828.1,4.99,0.00,30.0,29.1,00.0,39.1,31.7,10.5,0000.0,0000.69,0004.41,0000.32
2021-11-30 06:46:00,,0828.1,4.99,0.00,30.0,29.1,00.0,39.0,31.7,10.4,0000.0,0000.71,0004.50,0000.33
2021-11-30 06:47:00,,0828.0,5.02,0.00,30.0,29.1,00.0,39.0,31.7,10.4,0000.0,0000.71,0004.50,0000.33
2021-11-30 06:48:00,,0828.0,5.00,0.00,30.0,29.1,00.0,39.0,31.8,10.4,0000.0,0000.76,0004.03,0000.34
2021-11-30 06:49:00,,0828.0,5.00,0.00,30.0,29.1,00.0,39.0,31.7,10.5,0000.0,0000.82,0003.84,0000.35
2021-11-30 06:50:00,,0828.0,4.98,0.00,30.0,29.1,00.0,39.0,31.7,10.5,0000.0,0000.89,0004.15,0000.37
2021-11-30 06:51:00,,0827.9,5.01,0.00,30.0,29.0,00.0,39.0,31.7,10.4,0000.0,0000.91,0004.18,0000.37
2021-11-30 06:52:00,,0828.0,5.01,0.00,30.0,29.0,00.0,39.0,31.7,10.4,0000.0,0000.92,0004.13,0000.37
2021-11-30 06:53:00,,0827.9,4.99,0.00,29.9,29.0,00.0,39.0,31.7,10.5,0000.0,0000.88,0003.48,0000.36
2021-11-30 06:54:00,,0827.9,5.01,0.00,30.0,29.0,00.0,39.0,31.6,10.5,0000.0,0000.80,0001.95,0000.34
2021-11-30 06:55:00,,0827.9,5.01,0.00,30.0,29.0,00.0,39.0,31.6,10.5,0000.0,0000.79,0001.87,0000.34
2021-11-30 06:56:00,,0828.0,4.99,0.00,30.0,29.0,00.0,39.0,31.6,10.5,0000.0,0000.78,0001.88,0000.34
2021-11-30 06:57:00,,0828.0,5.01,0.00,30.0,29.0,00.0,39.0,31.6,10.5,0000.0,0000.87,0002.27,0000.35
2021-11-30 06:58:00,,0828.0,5.00,0.00,30.0,29.0,00.0,39.0,31.7,10.5,0000.0,0000.86,0003.04,0000.35
2021-11-30 06:59:00,,0828.0,4.98,0.00,30.0,29.0,00.0,39.0,31.6,10.5,0000.0,0000.80,0003.24,0000.34
